Tracking 22124 objects as of 23-Jan-2021
HD Live streaming from Space Station
objects crossing your sky now

SUCHAI

Track SUCHAI now!
10-day predictions
SUCHAI is classified as:


NORAD ID: 42788
Int'l Code: 2017-036Z
Perigee: 492.2 km
Apogee: 506.4 km
Inclination: 97.3 °
Period: 94.5 minutes
Semi major axis: 6870 km
RCS: Unknown
Launch date: June 23, 2017
Source: Chile (CHLE)
Launch site: SRIHARIKOTA (SRI)

Uplink (MHz):
Downlink (MHz): 437.225
Beacon (MHz): 437.229
Mode: CW
Call sign: SUCHAI
Status: Active

aabbcc
Your satellite tracking list
Your tracking list is empty




NASA's NSSDC Master Catalog

Two Line Element Set (TLE):
1 42788U 17036Z   21022.69237131  .00001422  00000-0  60526-4 0  9997
2 42788  97.2740  77.1501 0010370 340.1780  19.9053 15.24542477199271
Source of the keplerian elements: AMSAT